Regional Weather Roundup
Issued by NWS

Home | Current Version | Previous Version | Graphics & Text | Print | Product List | Glossary On
Versions: 1 2 3 4 5 6 7 8 9 10 11 12 13 14 15 16 17 18 19 20 21 22 23 24 25 26 27 28 29 30 31 32 33 34 35 36 37 38 39 40 41 42 43 44 45 46 47 48 49 50
000
ASUS45 KABQ 251010
RWRNM
NEW MEXICO REGIONAL WEATHER ROUNDUP
NATIONAL WEATHER SERVICE ALBUQUERQUE NM
400 AM MDT SUN JUN 25 2017

NOTE: "FAIR" MEANS FEW OR NO CLOUDS BELOW 12,000 FEET AGL WITH NO
       SIGNIFICANT WEATHER OR OBSTRUCTIONS TO VISION.

      THIS PRODUCT IS RELEASED AS TWO VERSIONS.  ONE VERSION NEAR
      THE TOP OF THE HOUR CONTAINING PRELIMINARY DATA FROM ALBUQUERQUE
      AND OTHER STATIONS.  A FINAL VERSION WITH ADDITIONAL DATA IS
      ISSUED ABOUT 10 MINUTES AFTER THE HOUR.

NMZ501-503-504-510>518-251100-
NORTHWEST PLATEAU/NORTHCENTRAL MOUNTAINS

CITY           SKY/WX    TMP DP  RH WIND       PRES   REMARKS
FARMINGTON     FAIR      63  25  23 E10       30.18R
LOS ALAMOS     CLOUDY    61  53  76 S12G21    30.43R
SANTA FE       FAIR      63  56  78 SE17      30.35S
TAOS           FAIR      59  45  58 E8        30.40S
ANGEL FIRE     FAIR      49  48  94 SW3       30.49S

$$
NMZ402-403-502-505>509-251100-
WESTCENTRAL MOUNTAINS/SOUTHWEST MOUNTAINS

CITY           SKY/WX    TMP DP  RH WIND       PRES   REMARKS
GALLUP         FAIR      62  40  44 CALM      30.26R
GRANTS         FAIR      62  46  57 S17G23    30.32R
SILVER CITY    FAIR      59  57  92 NW5       30.31R

$$
NMZ407-409-411-412-251100-
SOUTHERN DESERTS

CITY           SKY/WX    TMP DP  RH WIND       PRES   REMARKS
DEMING         FAIR      66  59  78 NW5       30.22R
LAS CRUCES     FAIR      69  58  68 CALM      30.24S
HOLLOMAN AFB   FAIR      69  58  68 E5        30.23R
ALAMOGORDO     FAIR      68  57  68 E6        30.23R
T OR C         FAIR      66  56  70 SW8       30.25R

$$
NMZ519>523-251100-
CENTRAL VALLEYS/CENTRAL HIGHLANDS

CITY           SKY/WX    TMP DP  RH WIND       PRES   REMARKS
ALBUQUERQUE    FAIR      68  51  54 E7        30.28R
DOUBLE EAGLE   FAIR      60  51  72 SE3       30.31S
MORIARTY ARPT  FAIR      60  56  84 S6        30.37S
CLINES CORNERS CLOUDY    58  53  84 E10       30.41F
BELEN          FAIR      65  46  51 S8        30.26S
SOCORRO        FAIR      61  53  74 SE7       30.25R

$$
NMZ524>526-539-540-251100-
SOUTHCENTRAL MOUNTAINS

CITY           SKY/WX    TMP DP  RH WIND       PRES   REMARKS
RUIDOSO        CLOUDY    57  54  88 SE7       30.42S

$$
NMZ527>531-251100-
NORTHEAST HIGHLANDS/NORTHEAST PLAINS

CITY           SKY/WX    TMP DP  RH WIND       PRES   REMARKS
LAS VEGAS      LGT RAIN  58  54  86 S7        30.41F
RATON          CLOUDY    58  57  97 S5        30.38S
CLAYTON        CLOUDY    58  58 100 S5        30.33F FOG

$$
NMZ532>537-251100-
EASTCENTRAL PLAINS

CITY           SKY/WX    TMP DP  RH WIND       PRES   REMARKS
SANTA ROSA     CLOUDY    64  58  82 SE7       30.31R
TUCUMCARI      CLOUDY    65  63  93 SE10      30.27S
CANNON AFB     CLOUDY    64  64 100 S20G26    30.28F THUNDER
CLOVIS AIRPORT CLOUDY    61  57  88 E3        30.31R

$$
NMZ028-029-538-251100-
SOUTHEAST PLAINS

CITY           SKY/WX    TMP DP  RH WIND       PRES   REMARKS
ROSWELL        FAIR      71  61  70 SE14      30.23R
ARTESIA        FAIR      72  66  83 SE17G23   30.22R
CARLSBAD       CLOUDY    73  66  78 SE14      30.20S
HOBBS          CLOUDY    68  64  88 E15G22    30.26F


$$




USA.gov is the U.S. government's official web portal to all federal, state and local government web resources and services.